This is the latest recevied weather packets stored in our database for station/object KD2VWU. If no packets are shown the sender has not sent any weather packets the latest 10 day(s).
| Time | Temp. | Humidity | Pressure | Rain* | Wind** | Luminosity | Snow |
|---|---|---|---|---|---|---|---|
| 1777537508 | 7.78° C | 99% | 1005.2 hPa | 0 mm | - | - | - |
| 1777537204 | 7.78° C | 99% | 1005.2 hPa | 0 mm | - | - | - |
| 1777536900 | 7.78° C | 99% | 1005 hPa | 0 mm | - | - | - |
| 1777536598 | 7.78° C | 99% | 1004.9 hPa | 0 mm | - | - | - |
| 1777536294 | 7.78° C | 99% | 1005.3 hPa | 0 mm | - | - | - |
| 1777535990 | 7.78° C | 99% | 1005.2 hPa | 1.27 mm | - | - | - |
| 1777535686 | 7.78° C | 99% | 1005.2 hPa | 1.27 mm | - | - | - |
| 1777535383 | 7.22° C | 99% | 1005.4 hPa | 1.78 mm | - | - | - |
| 1777535081 | 7.22° C | 99% | 1005.5 hPa | 1.78 mm | - | - | - |
| 1777534778 | 7.22° C | 99% | 1005.6 hPa | 1.78 mm | - | - | - |
| 1777534474 | 7.22° C | 99% | 1005.6 hPa | 1.27 mm | - | - | - |
| 1777534171 | 7.22° C | 99% | 1005.6 hPa | 3.05 mm | - | - | - |
| 1777533869 | 7.22° C | 99% | 1005.5 hPa | 1.78 mm | - | - | - |
| 1777533566 | 7.22° C | 99% | 1005.6 hPa | 1.27 mm | - | - | - |
| 1777533262 | 7.22° C | 99% | 1005.7 hPa | 1.27 mm | - | - | - |
| 1777532958 | 7.22° C | 99% | 1005.6 hPa | 1.78 mm | - | - | - |
| 1777532655 | 7.22° C | 99% | 1005.7 hPa | 4.83 mm | - | - | - |
| 1777532352 | 7.22° C | 99% | 1005.6 hPa | 4.83 mm | - | - | - |
| 1777532048 | 7.22° C | 99% | 1005.8 hPa | 3.05 mm | - | - | - |
| 1777531744 | 7.22° C | 99% | 1005.9 hPa | 3.05 mm | - | - | - |
| 1777531441 | 7.22° C | 99% | 1005.8 hPa | 4.83 mm | - | - | - |
| 1777531139 | 7.22° C | 99% | 1005.7 hPa | 4.32 mm | - | - | - |
| 1777530836 | 7.22° C | 99% | 1006 hPa | 3.05 mm | - | - | - |
| 1777530534 | 7.22° C | 99% | 1006 hPa | 3.05 mm | - | - | - |
| 1777530229 | 7.22° C | 99% | 1006 hPa | 3.05 mm | - | - | - |
* Rain latest hour (hover to see other rain measurements)
** Current wind speed in m/s (hover to see current wind gust speed)